Location: Grange Verzio
(44.5000°N, 6.9833°E)
Time: 10:20:46
(UTC+00:00)

ARGOS - Pass Details

Date: 01 February 2023
Orbit: 820 x 834 km, 98.4° (Epoch: 31 March)

Event Time Altitude Azimuth Distance (km) Brightness Sun altitude
Rises 17:15:18 0° 180° (S) 3,336 6.5 -6.6°
Reaches altitude 10° 17:17:42 10° 186° (S) 2,409 5.9 -7.0°
Maximum altitude 17:22:52 50° 261° (W) 1,046 4.3 -7.9°
Drops below altitude 10° 17:28:05 10° 336° (NNW) 2,432 5.7 -8.8°
Sets 17:30:32 0° 342° (NNW) 3,371 6.4 -9.2°
